Location: Savignano sul Rubicone
(44.0950°N, 12.4090°E)
Time: 00:35:49
(UTC+01:00)

Tiangong 2 - Pass Details

Date: 17 February 2019
Orbit: 379 x 390 km, 42.8° (Epoch: 20 March)

Event Time Altitude Azimuth Distance (km) Brightness Sun altitude
Rises 18:57:40 0° 275° (W) 2,255 6.8 -14.2°
Reaches altitude 10° 18:59:47 10° 270° (W) 1,398 5.3 -14.6°
Maximum altitude 19:02:49 46° 195° (SSW) 522 1.8 -15.1°
Enters shadow 19:04:09 27° 137° (SE) 774 2.2 -15.4°
